This demonstration page uses our WeatherBlox Daily Observations layout. Learn more.

Hourly Observations for October 11, 2018

Temp ( °F °C ) Dew Point ( °F °C ) Humidity (%) Winds ( mph kmh ) Pressure ( in mb ) Visibility ( mi km ) Precip ( " mm )
12:15 am 00:15 Clear 32 -0.2 31 -0.5 98 98 WNW 6 9 30.24 1024 10 16.0934 0 0
12:35 am 00:35 Clear 31 -0.3 31 -0.6 98 98 NW 5 7 30.24 1024 10 16.0934 0 0
12:55 am 00:55 Clear 31 -0.5 31 -0.7 99 99 NW 5 7 30.24 1024 10 16.0934 0 0
1:15 am 01:15 Clear 30 -1 30 -1 100 100 WNW 5 7 30.24 1024 10 16.0934 0 0
1:35 am 01:35 Clear 30 -0.9 30 -1 99 99 WNW 7 11 30.24 1024 10 16.0934 0 0
1:55 am 01:55 Clear 31 -0.7 30 -1.3 96 96 WNW 5 7 30.27 1025 10 16.0934 0 0
2:15 am 02:15 Clear 30 -1 29 -1.5 96 96 WNW 6 9 30.27 1025 10 16.0934 0 0
2:35 am 02:35 Clear 30 -1.1 29 -1.5 97 97 WNW 6 9 30.27 1025 10 16.0934 0 0
2:55 am 02:55 Clear 30 -1.2 29 -1.5 98 98 NW 5 7 30.27 1025 10 16.0934 0 0
3:15 am 03:15 Clear 30 -1.3 29 -1.8 96 96 WNW 3 6 30.27 1025 10 16.0934 0 0
3:35 am 03:35 Clear 30 -1.3 28 -2 95 95 WNW 5 7 30.27 1025 10 16.0934 0 0
3:55 am 03:55 Clear 28 -2 28 -2.3 98 98 NW 5 7 30.27 1025 10 16.0934 0 0
4:15 am 04:15 Clear 28 -2 28 -2.5 96 96 NW 6 9 30.27 1025 10 16.0934 0 0
4:35 am 04:35 Clear 29 -1.9 28 -2.3 97 97 NW 5 7 30.27 1025 10 16.0934 0 0
4:55 am 04:55 Clear 28 -2 28 -2.5 96 96 NW 3 6 30.27 1025 10 16.0934 0 0
5:15 am 05:15 Clear 28 -2.4 27 -2.7 98 98 NW 3 6 30.3 1026 10 16.0934 0 0
5:35 am 05:35 Clear 28 -2.2 27 -2.7 96 96 NW 3 6 30.3 1026 10 16.0934 0 0
5:55 am 05:55 Clear 27 -2.6 27 -3 97 97 WNW 5 7 30.3 1026 10 16.0934 0 0
6:15 am 06:15 Clear 27 -2.6 27 -3 97 97 W 6 9 30.33 1027 10 16.0934 0 0
6:35 am 06:35 Clear 28 -2.3 27 -2.7 97 97 WSW 5 7 30.33 1027 10 16.0934 0 0
6:55 am 06:55 Clear 28 -2.5 27 -3 96 96 W 5 7 30.33 1027 10 16.0934 0 0
7:15 am 07:15 Clear 27 -2.6 27 -3 97 97 WNW 5 7 30.33 1027 10 16.0934 0 0
7:35 am 07:35 Clear 28 -2.1 27 -2.8 95 95 WNW 6 9 30.33 1027 10 16.0934 0 0
7:55 am 07:55 Sunny 28 -2.4 27 -3 96 96 W 5 7 30.33 1027 10 16.0934 0 0
8:15 am 08:15 Sunny 29 -1.9 27 -2.7 94 94 W 6 9 30.33 1027 10 16.0934 0 0
8:35 am 08:35 Sunny 29 -1.6 28 -2.5 94 94 W 6 9 30.3 1026 10 16.0934 0 0
8:55 am 08:55 Sunny 31 -0.6 29 -1.6 93 93 WNW 5 7 30.3 1026 10 16.0934 0 0
9:15 am 09:15 Sunny 33 0.4 31 -0.7 92 92 NW 6 9 30.3 1026 10 16.0934 0 0
9:35 am 09:35 Sunny 35 1.5 32 -0.2 89 89 NW 5 7 30.27 1025 10 16.0934 0 0
9:55 am 09:55 Sunny 36 2.3 32 -0.2 84 84 NNW 6 9 30.27 1025 10 16.0934 0 0
10:15 am 10:15 Sunny 37 3 31 -0.5 78 78 NNW 5 7 30.27 1025 10 16.0934 0 0
10:35 am 10:35 Sunny 39 4 32 -0.2 74 74 NNW 6 9 30.27 1025 10 16.0934 0 0
10:55 am 10:55 Sunny 40 4.4 31 -0.8 69 69 NNW 5 7 30.27 1025 10 16.0934 0 0
11:15 am 11:15 Sunny 41 5 31 -0.7 67 67 NW 7 11 30.24 1024 10 16.0934 0 0
11:35 am 11:35 Partly Cloudy 42 5.5 31 -0.8 64 64 Calm 30.24 1024 10 16.0934 0 0
11:55 am 11:55 Partly Cloudy 42 5.7 31 -0.4 65 65 N 6 9 30.24 1024 10 16.0934 0 0
12:15 pm 12:15 Partly Cloudy 43 6.3 31 -0.5 62 62 N 6 9 30.24 1024 10 16.0934 0 0
12:35 pm 12:35 Sunny 44 6.9 32 0.1 62 62 NW 8 13 30.21 1023 10 16.0934 0 0
12:55 pm 12:55 Sunny 46 7.5 32 -0.2 58 58 NNW 5 7 30.18 1022 10 16.0934 0 0
1:15 pm 13:15 Sunny 46 7.8 32 -0.1 58 58 Calm 30.18 1022 10 16.0934 0 0
1:35 pm 13:35 Sunny 47 8.2 32 -0.1 56 56 NNW 6 9 30.15 1021 10 16.0934 0 0
1:55 pm 13:55 Partly Cloudy 49 9.4 33 0.3 53 53 Calm 30.15 1021 10 16.0934 0 0
2:15 pm 14:15 Cloudy 49 9.5 32 0 52 52 WSW 6 9 30.15 1021 10 16.0934 0 0
2:35 pm 14:35 Cloudy 48 9 32 0 54 54 Calm 30.15 1021 10 16.0934 0 0
2:55 pm 14:55 Cloudy 49 9.3 33 0.4 54 54 Calm 30.15 1021 10 16.0934 0 0
3:15 pm 15:15 Cloudy 49 9.5 33 0.3 53 53 WSW 5 7 30.15 1021 10 16.0934 0 0
3:35 pm 15:35 Cloudy 49 9.5 34 0.9 55 55 SSW 10 17 30.15 1021 10 16.0934 0 0
3:55 pm 15:55 Cloudy 48 9 33 0.7 56 56 SW 9 15 30.12 1020 10 16.0934 0 0
4:15 pm 16:15 Cloudy 48 8.7 33 0.5 57 57 SSW 8 13 30.12 1020 10 16.0934 0 0
4:35 pm 16:35 Cloudy 47 8.5 33 0.3 57 57 S 8 13 30.12 1020 10 16.0934 0 0
4:55 pm 16:55 Cloudy 46 8 33 0.4 59 59 SW 8 13 30.12 1020 10 16.0934 0 0
5:15 pm 17:15 Cloudy 46 7.8 33 0.4 60 60 SW 7 11 30.12 1020 10 16.0934 0 0
5:35 pm 17:35 Cloudy 46 7.7 33 0.5 61 61 SW 9 15 30.12 1020 10 16.0934 0 0
5:55 pm 17:55 Cloudy 45 7.3 33 0.3 61 61 SSW 7 11 30.09 1019 10 16.0934 0 0
6:15 pm 18:15 Cloudy 45 7.2 33 0.5 63 63 SSW 3 6 30.09 1019 10 16.0934 0 0
6:35 pm 18:35 Cloudy 45 7 34 0.9 65 65 SSW 5 7 30.09 1019 10 16.0934 0 0
6:55 pm 18:55 Cloudy 44 6.9 34 1 66 66 SW 5 7 30.09 1019 10 16.0934 0 0
7:15 pm 19:15 Cloudy 44 6.7 34 1.1 68 68 SSW 3 6 30.09 1019 10 16.0934 0 0
7:35 pm 19:35 Cloudy 44 6.5 35 1.6 71 71 SW 3 6 30.09 1019 10 16.0934 0 0
7:55 pm 19:55 Cloudy 44 6.4 36 2 74 74 SW 5 7 30.15 1021 10 16.0934 0 0
8:15 pm 20:15 Cloudy 43 6.2 35 1.7 73 73 SSW 3 6 30.15 1021 10 16.0934 0 0
8:35 pm 20:35 Cloudy 43 6.2 35 1.8 74 74 SW 5 7 30.15 1021 10 16.0934 0 0
8:55 pm 20:55 Cloudy 43 6 35 1.6 74 74 SW 3 6 30.15 1021 10 16.0934 0 0
9:15 pm 21:15 Cloudy 43 6 35 1.6 74 74 SSW 3 6 30.15 1021 10 16.0934 0 0
9:35 pm 21:35 Cloudy 42 5.8 35 1.7 75 75 SW 3 6 30.15 1021 10 16.0934 0 0
9:55 pm 21:55 Cloudy 42 5.8 35 1.6 75 75 SW 3 6 30.15 1021 10 16.0934 0 0
10:15 pm 22:15 Cloudy 42 5.8 35 1.5 74 74 SSW 3 6 30.15 1021 10 16.0934 0 0
10:35 pm 22:35 Cloudy 42 5.7 35 1.7 76 76 SW 5 7 30.15 1021 10 16.0934 0 0
10:55 pm 22:55 Cloudy 42 5.7 35 1.6 75 75 SSW 6 9 30.15 1021 10 16.0934 0 0
11:15 pm 23:15 Cloudy 42 5.5 35 1.7 77 77 SW 3 6 30.15 1021 10 16.0934 0 0
11:35 pm 23:35 Cloudy 42 5.5 35 1.7 77 77 SW 6 9 30.15 1021 10 16.0934 0 0
11:55 pm 23:55 Cloudy 42 5.3 35 1.6 77 77 SW 6 9 30.12 1020 10 16.0934 0 0

Powered by AerisWeather